GFSGBSN_700_spd_114.txt.gz
Wind_Speed
39 36 33 36 35 35 35 34 31 29 31 30 31 32 32 32 33 31 29 27 28 29 30 26 25 23 23 22 18 22 21 21 20 20 19 18 19 18 17 18 21 24 23 25 25 24 27
41 37 36 40 40 40 38 37 35 36 35 34 34 34 33 36 32 31 29 28 28 26 26 26 24 26 28 25 20 19 19 20 20 21 22 23 24 23 23 23 23 23 26 26 27 26 27
50 51 51 50 46 44 41 39 38 37 35 33 33 35 33 33 29 30 32 33 30 26 31 28 29 29 27 25 24 21 22 22 20 19 20 21 22 20 22 21 23 24 26 23 24 20 20
49 50 49 48 47 46 45 44 38 40 33 34 30 32 31 31 31 30 30 31 29 33 35 34 35 36 35 31 29 24 22 23 22 22 24 25 24 23 21 23 23 22 20 17 17 17 14
48 48 49 47 47 46 45 45 41 43 40 36 33 30 28 35 31 31 28 32 35 37 39 39 37 36 36 24 19 15 18 22 24 24 26 25 23 20 22 15 16 14 20 17 14 13 21
46 45 45 45 46 45 46 44 45 45 46 40 35 33 39 36 37 33 33 34 41 41 39 37 37 27 18 19 19 20 20 17 16 21 23 23 19 17 14 15 20 17 15 16 17 14 18
44 43 43 43 42 42 42 44 44 45 46 44 49 45 35 31 39 29 29 34 34 37 39 36 36 37 35 29 24 17 14 14 15 16 15 16 16 20 18 18 18 17 19 21 21 20 24
42 42 42 42 42 42 41 41 41 42 43 43 45 48 45 48 40 42 38 40 41 40 40 37 38 41 36 29 29 27 22 21 21 18 15 18 23 20 19 18 18 18 20 22 21 10 18
45 44 42 40 39 40 40 40 41 40 40 40 41 42 44 42 46 43 38 37 35 37 35 45 41 42 37 30 28 23 24 23 21 20 22 24 18 18 16 14 14 17 19 19 20 21 23
48 47 45 43 41 38 39 39 40 40 38 38 36 37 39 37 34 35 31 34 31 34 26 35 30 24 22 25 26 28 28 26 20 22 21 21 22 24 17 19 17 20 17 14 15 18 20
49 49 47 46 43 41 40 38 38 36 36 36 36 38 33 30 34 34 32 30 25 29 5 11 15 15 15 15 17 17 18 19 16 12 15 14 12 10 13 14 12 14 14 16 18 22 23
50 49 49 47 45 43 39 37 34 34 33 35 36 34 35 30 31 29 30 32 24 9 9 9 10 13 15 16 14 12 14 14 13 11 13 15 17 15 13 13 18 17 20 23 19 18 15
54 52 50 47 46 43 40 37 33 32 30 32 34 32 28 25 31 25 28 25 15 12 6 10 12 15 14 15 17 15 14 12 9 9 14 13 17 15 20 19 17 15 11 8 10 10 10
56 55 53 50 46 44 43 38 32 32 27 32 30 29 25 32 28 31 32 33 16 11 11 13 15 16 15 18 19 18 17 14 19 19 15 15 12 11 14 14 12 12 13 10 10 9 10
60 58 56 54 50 46 44 39 32 31 29 38 32 30 30 31 28 32 28 23 13 16 15 16 14 14 14 19 16 13 19 15 13 17 11 6 8 9 14 16 13 7 15 16 21 23 19
63 62 59 57 55 50 45 41 34 33 35 35 33 28 37 34 37 27 29 28 13 20 15 19 21 15 14 16 17 16 13 9 11 14 13 6 7 10 10 15 16 20 7 7 13 5 8
66 65 63 61 59 55 47 43 36 39 37 35 30 39 36 34 30 33 38 35 21 19 20 16 17 15 13 13 13 11 7 10 15 14 12 6 7 5 8 9 11 9 19 15 11 13 4
69 69 67 66 61 58 50 46 41 41 41 37 36 37 35 34 34 38 38 22 23 23 22 20 19 20 17 16 13 11 11 12 15 16 8 9 7 11 11 11 14 17 14 15 17 8 12
57 65 70 69 64 59 52 50 46 45 43 43 36 39 33 41 43 43 27 29 18 22 22 20 17 17 15 12 8 14 19 17 15 14 8 10 8 5 6 7 3 5 14 16 15 16 20
56 56 56 66 65 61 54 50 51 49 41 51 49 37 33 40 45 30 30 25 20 25 23 21 21 19 15 20 21 11 13 12 13 17 16 13 14 14 11 5 2 8 8 11 15 14 18
52 54 56 56 61 55 54 53 54 46 46 54 57 35 46 51 48 37 27 24 24 26 25 22 19 17 21 18 16 18 15 14 14 16 16 13 11 14 18 16 14 16 17 14 18 17 16
48 47 47 51 53 57 58 59 50 48 49 52 60 42 51 29 43 38 31 25 27 26 23 23 23 21 21 20 13 9 16 15 12 14 16 15 11 9 14 12 16 18 17 13 11 4 11
46 46 44 49 56 58 55 52 51 51 55 61 61 50 32 39 34 36 38 29 28 27 25 25 21 22 16 13 14 13 13 13 10 11 14 12 11 6 4 3 9 6 6 9 12 8 12
47 48 50 55 56 54 53 55 50 51 54 63 57 47 42 32 34 37 33 32 28 24 26 21 18 15 14 13 12 12 15 16 16 16 16 12 11 8 4 8 5 2 2 3 6 8 7
47 56 58 62 58 51 45 50 55 57 63 65 49 51 42 40 31 32 29 26 25 28 24 17 17 15 12 11 9 5 5 5 10 13 16 17 17 6 5 15 2 4 5 5 5 4 9
39 49 56 56 50 54 58 54 53 55 49 50 42 33 35 32 34 29 30 33 30 26 22 20 17 14 12 11 10 8 8 5 6 5 10 4 11 14 10 5 4 5 8 7 5 2 6
48 45 50 59 59 60 59 55 55 59 60 47 32 26 24 31 34 33 31 31 27 26 22 20 18 14 14 11 8 7 5 6 6 7 7 9 10 22 16 6 3 9 11 10 2 4 8
52 47 49 51 54 52 58 63 61 56 38 34 37 30 27 23 30 31 29 25 26 26 21 17 17 15 16 11 8 5 5 8 5 7 7 9 8 9 8 5 5 14 16 9 5 10 12
46 46 47 48 48 47 46 44 42 45 42 35 31 27 24 22 31 26 22 22 23 22 18 17 13 13 13 11 9 7 6 8 8 4 8 4 11 6 11 10 6 17 16 11 12 12 15

GFSGBSN_700_spd_117.txt.gz
Wind_Speed
43 43 43 41 35 40 39 34 35 32 31 31 28 29 28 31 31 31 30 29 26 24 24 20 19 20 17 18 23 20 21 22 22 21 18 15 11 11 15 13 16 21 21 21 22 22 24
45 47 41 40 41 36 27 32 32 30 32 32 31 31 33 33 33 31 30 29 27 26 26 24 21 22 24 26 21 24 24 22 20 18 19 18 15 13 18 18 19 19 21 20 21 24 23
53 47 56 49 45 38 40 40 41 34 32 33 32 33 32 31 32 32 29 29 30 28 25 27 25 27 30 28 31 31 29 26 22 20 17 18 18 15 11 13 17 19 22 22 23 24 20
50 51 52 50 46 44 47 46 44 43 39 33 34 33 28 29 33 30 32 31 31 29 26 30 31 36 36 36 34 28 22 22 23 22 22 25 23 21 18 16 20 21 22 26 19 12 16
48 48 49 48 47 48 48 47 44 42 42 37 36 30 30 32 29 30 33 32 31 32 34 33 37 34 35 26 24 22 21 18 21 23 25 26 23 20 14 15 20 19 27 23 19 12 13
45 46 45 44 44 44 44 43 42 43 42 42 43 34 38 36 34 31 31 34 36 38 39 37 34 21 20 21 34 29 26 22 20 18 19 20 16 17 15 17 26 23 24 21 19 16 21
44 43 43 42 41 40 41 39 39 39 41 42 44 45 44 39 36 28 32 33 34 33 41 34 31 38 31 37 35 28 26 22 17 15 18 17 18 22 19 20 24 25 25 28 28 26 28
42 41 42 41 40 39 39 38 37 37 37 40 42 44 44 41 45 42 46 37 31 33 45 47 45 41 35 39 35 27 26 20 17 19 16 18 26 20 21 21 21 22 26 30 30 26 26
46 44 43 41 40 38 38 37 37 37 37 37 37 40 42 41 45 44 43 44 45 41 38 43 41 40 37 34 35 27 24 16 19 19 21 27 21 14 16 20 21 24 25 27 28 25 28
50 48 47 45 43 41 39 36 35 35 36 34 35 36 37 38 40 40 41 37 34 26 23 33 30 24 22 20 24 21 20 19 19 23 21 28 24 26 26 23 20 28 22 24 22 22 29
52 51 49 47 46 44 41 39 37 35 33 33 34 33 32 27 34 30 34 29 23 19 6 7 14 20 15 9 14 15 21 22 24 22 19 22 17 16 18 23 20 24 18 16 19 25 29
53 52 50 48 47 45 43 40 38 35 33 32 33 33 31 35 32 29 26 26 21 5 11 10 11 9 9 13 10 10 8 14 12 17 21 22 15 15 16 16 17 15 17 21 24 28 24
55 54 53 49 46 46 44 41 38 36 33 32 32 30 28 31 31 27 28 25 11 11 7 11 10 11 13 10 12 11 10 13 11 12 17 19 20 18 17 16 17 16 16 16 18 16 17
57 56 54 52 50 48 43 41 40 35 33 31 31 28 32 32 32 26 30 22 12 15 27 11 8 12 17 15 12 12 14 17 17 15 14 16 17 19 19 15 17 18 21 19 19 15 19
58 56 56 54 54 50 46 42 40 36 34 31 32 34 34 29 30 35 32 32 18 25 23 16 12 14 16 16 12 13 17 19 17 17 13 11 16 11 17 14 12 12 22 19 25 27 23
59 58 57 56 55 53 50 45 42 37 36 35 34 37 36 29 34 37 37 33 19 17 12 18 20 15 19 19 15 13 15 11 17 19 15 11 15 18 16 14 18 20 13 10 13 6 12
59 58 58 57 56 54 53 48 44 40 37 35 35 33 42 31 35 36 37 27 23 20 18 19 22 19 20 16 19 18 12 11 11 10 12 12 14 14 10 18 17 17 19 20 19 20 9
58 58 58 59 58 56 55 51 45 42 39 39 40 39 45 39 38 43 42 27 26 21 17 19 21 18 18 18 17 18 17 14 11 11 9 12 10 18 21 17 16 19 21 17 22 17 14
57 57 59 59 59 57 55 53 46 45 44 44 42 43 34 43 38 45 31 28 19 21 21 17 15 17 16 19 15 17 15 16 20 13 7 11 10 11 8 12 15 12 18 19 17 17 21
49 47 52 54 57 58 57 54 47 48 47 46 47 39 41 45 48 39 32 26 26 22 20 17 16 17 16 17 17 10 15 15 17 13 20 13 15 15 17 11 5 5 7 12 18 21 21
50 50 52 51 49 48 57 55 49 51 50 49 54 38 49 52 49 44 32 25 28 21 21 22 19 20 20 17 18 18 14 15 16 17 19 15 14 15 24 20 17 17 16 16 19 21 20
55 54 54 53 53 51 51 53 52 52 50 52 54 46 46 34 44 47 32 29 31 25 24 26 19 22 18 20 16 11 17 19 17 15 16 15 11 11 20 16 16 21 23 21 22 23 28
57 57 57 56 55 55 53 53 55 58 56 59 58 55 28 30 35 41 41 30 30 27 19 19 22 16 18 17 13 13 13 14 9 13 17 18 12 10 10 5 8 11 20 19 19 23 14
50 54 58 55 54 55 57 55 60 59 59 64 58 60 44 36 36 41 30 32 28 33 26 24 15 19 15 19 16 14 12 12 14 13 14 16 17 11 9 5 8 4 6 9 12 13 16
53 55 52 53 55 57 56 61 62 60 61 61 59 58 44 34 31 31 27 28 28 27 27 19 15 18 19 14 10 8 10 15 20 22 21 22 16 8 7 13 3 8 10 8 7 9 11
42 62 48 59 50 55 58 68 59 64 58 57 63 52 48 37 32 29 32 32 34 26 22 21 23 18 17 11 12 11 11 10 8 6 18 19 20 20 10 10 3 6 7 8 6 6 12
35 51 64 51 58 58 63 63 60 58 63 63 55 53 48 40 30 36 40 33 27 25 20 24 23 21 19 14 13 14 13 9 8 11 17 16 17 23 21 12 3 8 10 10 4 5 9
42 58 62 57 60 65 63 61 62 58 56 61 57 59 44 41 26 29 24 30 26 22 23 20 21 21 18 15 13 10 7 7 7 5 8 13 9 14 18 11 7 9 14 12 6 5 10
47 56 58 57 59 56 53 54 56 55 62 61 64 40 27 34 38 38 37 35 25 20 18 17 13 17 14 14 11 5 4 6 8 6 11 8 14 2 9 8 7 7 16 14 6 11 13

GFSGBSN_700_spd_120.txt.gz
Wind_Speed
43 42 41 39 42 42 41 39 40 39 37 36 35 32 29 27 24 25 28 27 26 25 23 20 21 17 12 14 19 18 21 22 20 19 18 16 12 10 15 14 15 18 20 21 23 21 23
48 46 41 43 42 35 39 33 33 37 35 31 32 36 29 30 28 27 29 26 25 24 24 22 22 19 19 25 21 25 25 25 23 22 17 15 14 12 19 18 19 20 22 24 22 23 23
56 47 50 50 50 45 39 38 33 30 24 27 32 29 23 29 29 28 28 28 28 26 24 23 24 23 23 27 31 27 19 18 19 17 16 12 15 16 14 15 13 17 22 24 23 25 24
46 44 44 47 45 49 46 42 47 38 39 30 39 30 27 20 30 25 25 29 33 30 26 24 25 29 31 34 26 17 16 18 17 18 18 18 22 21 20 20 23 21 25 30 21 20 18
44 43 42 44 45 45 43 44 42 40 37 36 41 39 36 33 27 28 25 29 31 33 25 28 30 32 32 23 16 20 30 26 25 26 22 19 21 21 17 16 21 17 26 24 22 19 12
42 41 41 41 41 42 43 42 39 40 39 41 41 41 40 37 36 31 29 31 32 33 34 35 33 25 12 21 36 33 31 28 22 25 23 22 20 16 14 14 25 22 24 26 23 12 14
40 40 40 39 40 40 40 39 38 38 37 38 37 39 40 32 39 37 37 33 35 35 31 26 22 34 32 30 42 37 33 28 22 23 20 14 17 19 17 18 23 26 28 29 27 25 25
41 40 39 39 38 38 37 37 36 35 35 35 37 38 39 39 33 44 41 38 36 36 40 43 44 43 43 32 35 32 20 19 17 19 15 18 27 22 19 21 24 26 27 29 30 27 25
44 43 41 40 39 37 36 35 34 34 34 34 34 35 37 39 43 44 42 38 32 37 43 48 45 45 30 25 28 29 20 20 16 18 18 25 19 17 19 17 21 26 26 28 30 28 27
47 46 46 44 42 41 39 37 34 33 32 33 33 33 34 33 37 37 39 35 33 33 24 36 23 21 22 25 27 14 18 22 17 22 20 26 22 23 26 30 24 31 22 27 29 25 27
49 47 47 46 45 44 42 40 37 34 32 31 31 32 30 29 34 35 30 25 21 15 5 9 14 22 16 13 14 10 10 18 22 20 19 25 15 16 21 24 19 30 22 21 21 23 24
52 50 48 47 45 44 42 41 40 36 33 31 31 29 28 29 31 30 25 17 15 7 10 12 15 14 12 13 9 10 12 15 11 18 22 29 23 21 17 17 18 17 16 19 22 24 20
55 54 52 50 47 45 42 41 39 37 35 33 32 29 26 26 27 26 19 20 12 10 7 16 13 12 13 11 15 12 9 12 11 9 14 17 22 23 22 19 16 17 13 12 12 14 15
55 55 54 53 51 48 46 43 40 38 36 33 32 26 25 26 27 26 27 25 10 22 28 5 14 12 16 15 13 14 14 16 17 17 18 15 16 13 14 20 17 18 17 14 16 14 19
55 55 54 54 53 50 48 45 41 38 36 34 30 31 31 30 26 26 29 23 25 27 19 19 17 16 17 17 17 13 16 19 18 17 20 12 19 5 11 9 10 15 18 19 27 25 21
56 56 56 55 54 52 50 48 44 41 37 35 35 33 33 31 30 32 32 37 37 26 15 17 25 16 16 20 18 12 15 11 17 19 14 10 18 17 21 18 19 18 18 17 11 8 13
56 56 57 57 56 54 53 50 47 42 41 38 35 35 35 32 38 45 41 47 35 26 21 17 21 21 18 20 20 21 15 9 13 13 17 10 14 22 18 19 22 20 22 19 19 21 10
54 56 57 57 57 56 55 53 49 44 43 41 40 39 41 37 41 38 46 44 35 19 29 24 20 23 24 23 22 20 19 16 14 11 9 9 11 18 22 20 19 20 23 22 22 14 23
54 53 56 57 56 56 55 54 51 46 47 45 43 41 39 41 37 48 45 39 33 20 22 21 21 18 17 19 18 20 18 18 16 14 6 6 8 11 10 12 12 21 19 21 24 19 23
53 52 50 52 56 56 55 55 52 48 49 47 45 36 40 40 45 46 48 34 30 26 25 24 17 16 16 18 17 13 17 19 22 21 19 18 15 14 16 8 12 14 12 11 17 20 22
53 53 50 51 49 52 55 55 54 50 47 48 49 34 47 44 49 48 42 28 27 29 23 22 23 19 18 15 19 21 16 16 13 21 19 18 14 15 19 21 22 21 20 16 17 18 18
51 51 51 50 51 49 49 50 52 53 48 49 52 41 46 42 32 47 43 38 29 29 23 26 24 20 21 21 19 15 20 20 21 15 15 14 12 10 23 21 19 24 24 23 24 25 30
58 57 53 50 51 52 53 50 51 57 55 56 54 49 36 47 29 35 52 45 31 26 27 23 24 17 21 18 17 15 17 12 19 13 17 14 16 9 9 9 5 15 25 29 27 26 20
66 62 60 54 53 53 56 55 52 62 58 59 55 49 38 35 41 50 37 39 32 28 36 21 23 23 18 13 17 16 14 10 14 14 13 16 21 13 12 10 9 12 10 9 14 20 19
57 66 62 60 57 55 56 56 55 66 59 58 57 56 48 37 30 32 40 35 27 28 32 27 27 18 19 17 16 6 6 11 19 20 20 20 18 9 7 12 12 14 14 9 10 11 12
52 54 61 60 61 59 58 56 58 66 61 58 52 54 45 37 33 27 27 31 33 34 27 28 25 22 19 18 13 14 10 11 9 8 24 21 20 18 10 7 3 2 5 5 5 8 12
51 55 54 57 61 57 59 57 57 68 64 61 48 58 47 34 23 30 33 34 33 31 29 28 30 26 22 17 16 13 18 11 10 13 22 25 23 26 21 11 6 6 6 10 4 4 7
41 54 51 53 52 59 55 59 57 68 65 64 50 46 53 48 26 27 28 37 37 38 33 31 31 28 24 19 17 12 12 15 5 8 18 22 14 16 17 12 12 13 9 11 7 4 10
42 42 50 53 48 55 56 57 58 67 63 62 60 57 49 45 36 30 36 40 40 27 24 19 30 24 21 19 14 12 9 9 6 5 10 9 14 5 9 12 9 7 16 15 8 8 7

GFSGBSN_700_spd_123.txt.gz
Wind_Speed
41 41 40 41 41 42 40 40 40 39 38 37 36 34 33 31 29 26 24 24 24 21 21 21 19 18 16 13 13 12 17 18 15 10 10 12 11 10 11 10 11 17 17 21 23 25 29
44 44 41 41 40 44 40 43 43 41 39 37 36 36 29 30 33 28 26 25 25 21 19 20 21 19 18 18 20 20 19 12 13 8 5 6 8 11 15 14 16 19 23 27 26 29 31
50 54 49 52 44 44 39 38 30 30 36 34 29 31 24 24 23 27 21 25 25 24 21 22 22 22 20 19 24 22 10 8 14 14 11 7 8 12 14 17 11 16 22 22 22 23 22
49 47 46 46 49 42 53 51 42 34 38 37 28 32 24 26 32 25 23 24 22 27 27 23 24 24 22 29 22 9 7 22 20 17 16 14 16 16 16 17 19 22 25 25 11 10 20
46 44 42 41 41 39 39 48 45 47 45 44 35 36 36 28 29 28 31 23 27 31 23 28 29 28 31 17 13 12 25 23 25 25 17 14 17 18 17 20 21 14 21 22 23 18 19
43 43 41 40 40 38 36 36 38 37 34 35 33 32 31 32 28 36 27 29 26 25 29 28 32 29 11 12 29 30 33 31 24 20 20 17 18 18 17 12 14 15 17 23 27 18 23
43 41 40 39 38 37 36 37 35 34 33 32 32 32 33 32 33 36 31 39 32 38 36 32 29 32 28 31 34 34 36 32 23 17 18 15 20 23 15 10 15 21 25 28 25 24 27
42 40 38 37 36 35 34 33 32 32 31 30 30 31 31 32 32 33 31 32 34 36 43 41 40 42 39 37 37 27 27 27 21 18 13 15 23 18 15 11 15 22 23 26 30 27 23
43 42 40 39 36 35 34 32 31 30 30 30 30 31 31 29 30 34 36 29 31 38 40 47 39 40 30 27 29 23 20 19 21 16 16 21 19 9 20 21 22 23 21 27 32 28 26
47 45 43 42 40 38 36 35 33 31 29 29 30 32 30 28 31 34 35 35 35 29 22 37 24 21 15 14 26 15 12 20 24 24 16 20 25 23 22 23 19 29 23 23 23 24 20
48 48 46 45 44 41 39 38 36 33 31 29 29 29 28 28 32 30 26 19 17 14 4 5 11 14 10 10 14 16 13 17 27 24 15 19 9 9 15 15 17 26 16 18 19 20 22
48 47 46 45 44 42 40 39 38 36 33 31 30 28 26 29 27 24 22 20 11 7 9 8 14 14 15 15 17 18 9 19 22 26 29 32 28 25 21 22 20 14 16 19 21 22 14
51 49 48 46 44 43 41 39 37 36 34 32 31 27 26 25 23 19 14 15 16 11 5 12 16 19 15 13 19 14 13 15 17 14 16 13 13 12 19 26 23 21 12 4 4 4 9
52 52 51 50 48 46 43 41 39 36 35 34 31 28 25 25 23 21 20 30 11 20 28 2 9 9 12 12 11 16 16 14 12 14 18 15 12 7 12 22 24 15 10 3 4 3 11
50 50 51 50 50 48 46 43 42 39 36 35 33 31 31 28 28 25 33 29 26 36 20 17 17 15 16 14 17 15 21 18 20 17 25 11 15 17 14 11 12 9 17 13 10 25 17
49 50 49 49 49 49 48 46 43 40 38 36 35 34 33 30 31 30 33 37 41 40 18 11 17 21 21 20 16 21 15 9 16 19 22 15 17 21 18 12 14 19 16 12 7 4 7
39 41 46 48 47 48 49 48 45 42 39 39 37 34 37 34 31 39 36 44 44 37 19 22 20 16 22 19 22 26 20 16 15 18 24 20 19 16 17 15 16 16 21 19 20 19 3
45 42 38 41 48 48 49 48 46 44 41 41 40 35 40 35 39 39 46 30 38 27 31 24 22 21 17 20 21 19 20 25 18 20 20 17 10 12 21 26 28 19 24 21 21 13 19
52 51 48 43 45 46 47 47 47 45 43 43 41 39 39 37 39 43 46 44 40 32 29 28 31 24 22 20 13 20 20 17 21 18 13 15 9 7 12 9 5 14 17 17 19 19 21
52 52 51 50 47 45 45 45 46 46 43 39 39 35 41 37 46 43 49 45 43 34 31 25 22 22 19 23 19 16 18 16 18 18 17 17 17 17 17 13 7 17 15 13 19 16 21
51 52 50 50 50 50 47 46 46 46 45 44 46 31 46 47 47 49 44 40 42 36 37 27 20 23 21 17 20 19 16 21 20 22 21 21 22 24 25 27 28 27 30 21 21 21 19
52 51 50 47 46 48 48 46 48 48 47 48 51 41 45 46 45 48 47 48 43 36 29 28 31 21 19 21 23 17 19 23 23 18 19 24 18 14 21 21 22 27 24 29 27 28 28
55 54 51 48 46 46 49 49 49 50 57 59 45 52 39 49 42 36 51 49 42 22 28 31 25 25 21 21 19 21 23 24 20 23 19 17 17 10 11 6 10 14 19 21 25 25 28
57 56 54 51 47 45 49 50 51 50 64 59 56 51 41 34 44 52 44 38 43 35 34 30 24 24 26 26 25 26 26 20 15 16 19 14 14 12 11 11 4 9 10 12 15 21 29
58 60 58 56 52 48 47 50 51 52 66 65 43 56 46 37 39 40 47 38 29 34 32 33 27 27 31 27 25 19 15 15 19 20 20 19 14 11 6 6 16 22 16 15 12 13 14
63 64 65 65 60 57 51 50 52 55 66 66 47 55 56 44 34 32 31 36 32 37 40 35 30 31 32 26 19 13 11 11 9 10 26 23 18 18 7 5 3 4 4 7 10 11 9
55 56 57 61 67 59 58 52 53 59 66 67 50 53 55 46 45 22 28 27 30 35 34 35 35 33 30 26 25 15 15 11 9 14 23 28 22 27 22 9 9 16 11 9 4 4 4
46 51 50 51 55 63 58 53 53 61 66 67 59 54 55 43 25 37 31 25 33 36 41 36 35 32 29 26 18 13 15 18 19 14 20 28 19 17 18 10 11 18 12 14 8 7 7
30 42 47 50 55 62 59 55 53 62 64 65 64 48 49 30 38 38 27 32 28 35 39 39 32 26 31 27 16 19 12 8 16 7 15 18 17 17 12 11 11 10 13 14 16 6 7

GFSGBSN_700_spd_129.txt.gz
Wind_Speed
43 41 42 40 39 39 39 39 38 37 36 36 35 34 34 32 33 31 31 29 31 30 29 25 23 18 16 13 12 11 12 13 12 8 9 8 8 7 8 8 12 16 17 18 18 17 19
47 45 42 42 42 42 42 40 39 40 39 37 37 36 36 34 35 32 33 32 31 32 31 28 24 18 18 15 13 11 9 11 8 5 7 8 9 11 11 10 14 15 17 17 14 17 23
43 47 50 51 42 40 41 42 37 43 41 36 36 37 37 36 37 36 32 30 31 28 25 21 20 20 21 15 12 13 13 12 8 7 11 12 12 11 12 12 16 16 20 17 11 12 11
52 50 48 46 44 49 44 43 41 35 32 40 30 28 27 32 30 32 29 22 21 18 18 16 21 24 21 17 14 14 12 11 11 13 12 15 15 13 14 16 16 19 19 18 4 9 7
50 49 50 49 51 46 46 48 47 45 49 37 46 43 33 25 26 22 24 23 19 16 26 28 26 22 20 16 11 9 12 14 13 16 18 16 15 14 17 17 19 13 12 14 11 10 9
48 48 48 46 46 46 41 42 42 39 36 36 37 34 42 41 33 32 26 26 25 28 27 32 27 22 21 17 8 7 16 18 25 23 18 18 16 16 18 15 11 8 10 11 13 14 17
46 45 45 46 45 43 41 39 38 35 35 34 33 32 35 40 42 42 48 29 26 32 32 28 25 18 15 21 22 18 24 25 26 23 18 17 18 18 11 13 13 13 16 19 17 14 21
45 45 44 44 43 40 39 38 37 36 35 34 33 31 30 31 32 33 30 30 36 33 35 30 32 35 32 31 32 23 28 25 26 25 19 21 23 11 13 15 12 13 17 20 23 18 19
45 44 44 43 41 40 39 37 36 36 34 33 33 32 30 29 30 31 29 27 32 31 37 36 35 37 28 30 34 22 29 29 30 25 23 22 14 8 10 11 14 14 19 21 23 21 24
47 45 44 43 40 38 38 37 36 35 34 34 33 32 30 28 32 30 27 27 27 28 21 31 28 29 25 27 32 19 25 28 30 22 22 20 17 17 15 19 16 21 18 19 18 21 17
49 47 47 45 42 40 38 38 37 36 34 33 31 31 29 31 32 26 18 24 20 17 4 9 14 14 13 19 16 12 18 23 22 22 21 14 10 8 10 13 11 13 14 17 18 20 22
48 48 48 47 45 42 40 39 36 36 34 32 30 28 29 30 30 23 24 20 19 10 10 7 11 14 16 19 17 13 17 18 19 23 26 28 23 17 15 15 16 15 17 18 21 21 12
37 41 46 48 45 43 42 40 38 37 35 33 30 28 27 26 24 21 21 24 16 12 9 7 13 16 17 20 22 17 17 19 18 12 23 25 27 21 22 22 21 21 19 6 5 2 6
44 40 38 44 47 43 42 40 39 38 36 33 32 30 28 23 24 19 21 35 12 16 23 5 13 13 21 22 22 21 21 20 20 18 9 6 6 9 13 16 14 16 16 12 5 4 7
49 48 41 38 42 43 42 40 39 39 37 35 34 33 32 29 25 31 33 38 25 23 12 23 8 15 22 22 20 21 28 26 21 19 15 6 7 8 10 11 11 8 15 19 17 16 6
50 50 48 41 37 41 44 43 42 39 38 37 36 36 36 33 35 32 36 37 42 39 19 14 22 10 13 18 19 14 16 14 22 20 14 11 9 13 20 19 19 16 12 7 8 3 9
47 48 46 48 42 38 42 46 45 43 41 40 39 37 38 36 35 38 41 47 41 38 28 16 19 14 10 10 22 24 16 22 16 16 19 22 21 16 13 18 21 18 16 13 13 15 5
49 47 46 47 42 42 38 40 47 44 44 43 41 41 43 40 41 39 48 49 42 40 34 24 25 20 19 14 11 23 26 24 17 20 22 25 19 19 23 23 24 22 23 21 11 10 25
55 52 53 51 48 37 41 40 38 44 45 45 39 41 37 40 39 43 49 44 49 46 42 28 31 33 26 26 15 14 19 25 26 24 20 24 17 10 10 17 23 22 24 21 21 28 32
46 54 54 52 53 50 42 42 35 38 39 41 39 37 36 34 46 46 51 53 48 45 41 33 27 32 30 22 22 16 16 18 24 24 25 24 26 22 21 19 16 18 25 24 27 21 22
45 52 52 53 51 45 51 42 40 36 35 38 47 37 42 44 49 52 47 47 49 47 43 31 34 40 28 27 25 24 25 20 22 23 24 24 25 24 25 23 23 29 30 29 34 38 34
47 49 57 55 53 52 44 51 45 38 38 40 51 38 40 45 50 47 39 49 49 45 45 44 37 27 27 29 31 27 30 31 23 15 20 25 19 20 24 20 24 31 31 35 35 38 40
46 48 52 55 55 48 47 44 42 42 42 47 50 52 34 42 38 47 53 52 50 46 43 41 22 23 30 37 26 21 20 22 20 25 26 24 22 20 20 19 23 22 30 21 20 25 29
42 46 49 51 55 53 46 42 47 44 42 45 49 52 37 34 44 48 44 45 50 43 41 16 26 31 33 28 21 22 19 17 16 20 20 20 20 18 14 17 4 19 18 15 16 21 22
43 45 47 49 51 54 54 51 49 44 45 44 51 50 51 48 39 38 42 43 44 47 36 32 30 26 15 29 20 18 19 21 22 23 24 24 22 12 7 8 20 30 25 20 13 19 14
46 47 47 47 48 49 50 50 48 47 47 49 55 53 37 41 41 42 41 40 43 36 31 38 29 26 30 27 25 18 12 16 9 8 18 22 19 18 11 4 5 8 6 9 16 17 7
52 52 51 49 48 48 47 46 46 46 47 50 54 56 58 39 22 26 39 37 30 32 33 23 34 20 25 25 23 21 22 15 12 13 13 23 22 24 20 13 16 23 21 19 9 10 8
56 57 56 54 52 49 47 46 46 45 44 49 50 58 55 52 32 30 21 27 30 28 28 32 24 30 30 28 24 14 16 23 20 20 18 19 15 19 20 14 16 18 16 16 12 13 13
55 59 61 57 55 52 49 47 46 45 45 45 48 49 56 52 21 30 29 23 27 22 24 29 32 27 30 30 27 19 18 15 22 18 26 20 28 19 19 19 19 14 10 12 11 11 12

GFSGBSN_700_spd_132.txt.gz
Wind_Speed
43 42 40 38 38 37 37 38 37 37 36 36 36 34 34 34 33 32 32 32 32 32 30 29 26 23 22 18 15 15 15 15 13 12 10 8 9 9 7 7 10 12 11 13 13 11 14
49 50 46 44 43 41 40 40 40 40 40 39 37 36 36 35 35 34 34 34 34 34 30 28 27 25 24 18 16 14 13 12 10 11 9 9 8 9 12 11 12 13 14 12 12 13 15
45 47 46 51 45 45 39 43 41 42 40 39 38 37 37 35 36 35 36 36 35 33 27 25 23 19 19 13 16 15 15 14 13 12 11 11 11 11 12 12 14 13 15 12 13 13 8
48 47 47 41 49 48 46 41 37 38 40 39 38 38 38 33 33 32 33 35 33 31 27 25 20 17 17 18 17 14 14 15 16 15 13 16 14 13 15 16 16 17 16 10 5 6 7
52 54 52 50 46 46 42 45 44 40 40 37 36 35 30 33 31 25 31 32 31 28 27 21 21 21 21 18 17 16 17 19 18 16 15 18 17 17 19 17 17 15 10 11 9 11 12
52 49 48 51 53 55 54 50 48 45 40 44 38 42 38 36 32 32 30 24 27 26 22 25 26 26 23 19 13 10 10 13 18 17 22 23 18 17 21 15 14 8 10 13 11 10 14
48 48 48 46 46 46 47 46 41 39 39 38 35 35 36 34 33 30 35 38 34 35 35 37 27 28 17 15 11 17 15 20 22 25 23 22 19 20 11 12 15 18 18 18 15 9 21
47 47 46 46 45 45 44 42 40 38 37 36 38 34 34 34 33 35 42 42 41 41 46 42 39 39 33 30 24 24 26 26 25 26 24 24 23 16 16 17 15 16 17 17 16 11 19
45 44 44 44 44 44 43 42 40 39 38 37 35 33 34 33 32 35 35 36 35 34 36 37 33 35 30 33 34 29 32 29 30 29 27 27 18 11 9 13 15 17 17 15 19 18 19
47 46 44 43 43 43 41 40 40 38 38 36 34 34 35 32 34 33 30 28 28 26 22 34 31 31 30 33 38 26 31 32 36 32 25 20 16 20 21 21 21 21 17 17 15 15 11
48 47 46 45 43 42 40 39 39 38 36 36 35 35 32 32 33 29 24 25 20 15 5 8 15 18 18 22 25 19 25 29 34 31 23 11 10 9 8 9 9 12 9 9 13 16 20
36 43 47 47 45 44 41 38 38 37 35 34 33 32 31 33 32 26 24 21 19 11 9 7 9 13 15 18 19 16 17 22 18 23 22 25 21 14 12 9 8 12 15 19 20 20 10
38 37 38 41 46 46 45 40 38 37 34 32 31 31 30 28 27 24 24 22 16 11 10 8 12 14 14 16 19 16 17 18 14 14 19 23 25 24 22 22 20 21 18 4 4 2 6
46 40 39 36 36 43 46 44 41 40 37 34 32 30 29 26 23 23 26 33 12 15 27 5 10 12 17 17 22 17 16 18 18 18 13 7 4 4 9 13 10 9 12 8 5 3 6
52 49 43 40 37 36 40 43 41 41 40 38 35 33 31 28 24 22 31 35 23 29 13 24 6 14 18 20 14 21 20 20 20 18 12 6 4 8 8 7 7 5 8 10 14 18 6
53 54 52 47 39 38 37 37 41 40 40 39 39 37 36 31 26 32 37 33 35 35 13 16 26 13 16 22 21 14 13 10 23 24 16 10 8 12 11 11 13 15 13 6 5 2 5
57 52 57 53 49 39 38 36 35 40 39 38 39 39 41 38 37 34 41 44 43 37 32 14 20 16 14 14 19 20 13 17 14 14 16 20 15 9 13 13 15 13 17 14 12 10 3
53 50 54 56 53 49 44 35 35 36 39 36 36 41 46 42 43 45 44 49 44 40 35 26 22 20 13 13 11 15 25 21 11 21 18 20 10 17 20 19 19 20 21 20 13 10 20
50 51 50 51 54 49 47 42 36 35 39 39 37 42 41 42 37 47 48 47 50 45 36 31 32 23 17 18 10 12 15 17 23 21 16 21 16 12 11 14 18 22 25 25 25 26 35
41 50 54 48 42 47 47 40 41 37 37 41 38 38 38 36 51 46 49 55 49 45 29 34 33 31 33 29 29 16 16 11 13 20 24 24 23 24 20 15 13 15 20 19 19 20 33
37 39 49 50 45 44 47 48 40 43 38 40 48 30 36 38 51 55 45 45 50 42 43 39 33 26 21 26 27 24 22 18 19 19 23 25 21 21 23 22 25 26 27 25 29 40 33
38 40 42 43 46 47 52 54 45 43 40 37 52 35 43 40 44 51 45 51 49 46 43 37 27 26 27 31 26 23 21 21 23 19 19 19 21 23 25 25 24 29 29 31 39 40 44
40 42 42 42 42 43 55 58 45 45 46 43 48 55 32 46 40 44 56 55 53 48 39 40 28 28 27 23 21 22 22 20 22 21 20 24 27 16 17 19 17 29 29 26 25 23 21
43 43 45 45 42 40 49 55 52 56 51 43 46 48 45 35 43 48 49 48 47 43 45 24 26 27 26 27 27 26 24 25 25 19 19 20 17 17 15 12 6 18 14 16 20 20 22
45 45 45 46 45 43 50 55 56 53 52 43 42 46 52 31 37 41 43 40 41 42 35 35 34 12 21 28 24 17 20 25 26 24 22 20 21 15 7 11 25 33 22 17 15 21 20
41 43 44 47 45 43 50 56 43 50 51 40 42 43 42 51 31 29 36 36 36 37 40 45 32 22 22 19 16 15 10 9 9 10 25 25 23 19 13 5 5 13 11 11 14 23 11
40 41 43 44 44 43 47 51 42 41 50 49 41 42 46 43 40 31 30 31 32 35 36 31 27 28 23 24 26 20 16 11 11 13 14 27 26 26 24 14 16 22 18 20 14 20 15
43 43 42 42 40 41 44 44 41 40 40 39 39 39 42 44 23 24 31 31 31 30 32 27 22 25 23 25 22 20 17 20 18 17 18 19 14 18 19 12 13 14 9 12 13 12 13
47 44 43 42 41 41 41 39 39 39 35 35 38 41 40 47 40 28 13 29 24 21 18 22 23 23 21 21 26 17 17 15 24 21 24 21 29 21 20 20 18 18 23 19 15 15 18